This demonstration page uses our WeatherBlox Daily Observations layout. Learn more.

Left ArrowRight Arrow

Hourly Observations for September 9, 2015

Temp ( °F °C ) Dew Point ( °F °C ) Humidity (%) Winds ( mph kmh ) Pressure ( in mb ) Visibility ( mi km ) Precip ( " mm )
12:52 am 00:52 Mostly Cloudy 66 18.9 64 17.8 93 93 N 7 11 29.99 1016 10 16 0.00 0.00
1:52 am 01:52 Mostly Clear 65 18.3 63 17.2 93 93 WNW 5 7 29.99 1016 10 16 0.00 0.00
2:52 am 02:52 Partly Cloudy 63 17.2 62 16.7 97 97 N 5 7 30.00 1016 9 14 0.00 0.00
3:52 am 03:52 Clear 63 17.2 62 16.7 97 97 NNW 5 7 30.00 1016 10 16 0.00 0.00
4:52 am 04:52 Clear 60 15.6 59 15 96 96 NW 3 6 30.01 1016 10 16 0.00 0.00
5:52 am 05:52 Clear 60 15.6 59 15 96 96 Calm 30.01 1016 8 13 0.00 0.00
6:52 am 06:52 Mostly Clear with Patchy Fog 59 15 58 14.4 96 96 NW 3 6 30.02 1017 10 16 0.00 0.00
7:52 am 07:52 Mostly Sunny 62 16.7 59 15 90 90 Calm 30.03 1017 10 16 0.00 0.00
8:52 am 08:52 Mostly Sunny 67 19.4 56 13.3 68 68 SSE 3 6 30.04 1017 10 16 0.00 0.00
9:52 am 09:52 Mostly Sunny 70 21.1 56 13.3 61 61 SSE 8 13 30.04 1017 10 16 0.00 0.00
10:52 am 10:52 Mostly Sunny 74 23.3 58 14.4 57 57 SSE 10 17 30.03 1017 10 16 0.00 0.00
11:52 am 11:52 Mostly Sunny 77 25 62 16.7 60 60 SSE 8 13 30.01 1016 10 16 0.00 0.00
12:52 pm 12:52 Partly Cloudy 78 25.6 63 17.2 60 60 S 8 13 29.99 1016 10 16 0.00 0.00
1:52 pm 13:52 Partly Cloudy 80 26.7 63 17.2 56 56 S 8 13 29.97 1015 10 16 0.00 0.00
2:52 pm 14:52 Partly Cloudy 82 27.8 64 17.8 55 55 SSW 9 15 29.94 1014 10 16 0.00 0.00
3:52 pm 15:52 Partly Cloudy 81 27.2 63 17.2 54 54 SSE 13 20 29.90 1013 10 16 0.00 0.00
4:52 pm 16:52 Partly Cloudy 82 27.8 63 17.2 53 53 S 15 24 29.88 1012 10 16 0.00 0.00
5:52 pm 17:52 Partly Cloudy 80 26.7 64 17.8 58 58 SSE 10 17 29.88 1012 10 16 0.00 0.00
6:52 pm 18:52 Partly Cloudy 79 26.1 65 18.3 62 62 S 8 13 29.89 1012 10 16 0.00 0.00
7:52 pm 19:52 Mostly Cloudy 76 24.4 66 18.9 72 72 E 3 6 29.90 1013 10 16 0.00 0.00
8:42 pm 20:42 Cloudy with Light Rain 75 24 68 20 78 78 W 3 6 29.94 1014 10 16 0.00 0.00
8:52 pm 20:52 Cloudy with Light Rain 75 23.9 67 19.4 76 76 WNW 3 6 29.95 1014 9 14 0.01 0.25
9:52 pm 21:52 Cloudy with Thunderstorms 72 22.2 68 20 87 87 W 7 11 29.96 1015 10 16 0.07 1.78
10:20 pm 22:20 Cloudy with Light Rain 72 22 68 20 88 88 S 13 20 29.88 1012 10 16 0.00 0.00
10:52 pm 22:52 Cloudy 72 22.2 67 19.4 84 84 SSW 9 15 29.90 1013 10 16 0.05 1.27
11:52 pm 23:52 Cloudy 70 21.1 68 20 93 93 SE 5 7 29.90 1013 10 16 0.00 0.00

Powered by AerisWeather